User: anonymous   Login
Location: 5810 Zion Rd, Cleves, OH 45002, USA
(39.1922°N, 84.7113°W)
Time: 05:09:26
(UTC-05:00)
Language:

Vanguard 2 Rocket - Orbit

View from above orbital plane
View from above orbital plane
View from above satellite
View from above satellite

Ground track
Ground track

The orbit data is extracted from the following two-line orbital elements,

1    12U 59001B   19347.18468197  .00000002  00000-0 -10402-4 0  9990
2    12  32.9009 286.1445 1666347 171.4167 191.9050 11.44315981501107
Epoch (UTC): 13 December 2019 04:25:56
Eccentricity: 0.1666347
inclination: 32.9009°
perigee height: 554 km
apogee height: 3326 km
right ascension of ascending node: 286.1445°
argument of perigee: 171.4167°
revolutions per day: 11.44315981
mean anomaly at epoch: 191.9050°
orbit number at epoch: 50110

The dashed part of the orbit path shows where the satellite is in the earth's shadow,  

DLR